2021-022AK

Last updated on Thu Apr 22 2021 00:02:04 GMT+0000 (Coordinated Universal Time)

1 48041U 21022AK 21111.56070781 .00002128 00000-0 14821-3 0 9996 2 48041 97.5628 14.8843 0016733 131.2784 349.7756 15.06395749 3283

Satellite not in orbit

2021-022AK